Location: Ústí nad Labem
(50.6611°N, 14.0531°E)
Time: 20:45:33
(UTC+02:00)

Envisat - Pass Details

Date: 28 February 2024
Orbit: 762 x 764 km, 98.3° (Epoch: 13 April)

Event Time Altitude Azimuth Distance (km) Brightness Sun altitude
Rises 02:35:56 0° 23° (NNE) 3,243 7.0 -38.7°
Reaches altitude 10° 02:38:37 10° 36° (NE) 2,311 6.2 -38.4°
Enters shadow 02:41:22 23° 66° (ENE) 1,609 5.1 -38.1°
